<?xml version="1.0" encoding="UTF-8" standalone="no" ?>
<gpx xmlns="http://www.topografix.com/GPX/1/1" xmlns:xsi="http://www.w3.org/2001/XMLSchema-instance" xsi:schemaLocation="http://www.topografix.com/GPX/1/1 http://www.topografix.com/GPX/1/1/gpx.xsd" version="1.1" creator="VisuGPX - https://www.visugpx.com">
  <metadata>
    <name>Rando CLERMONT DESSOUS - BAZENS</name>
    <desc><![CDATA[De Clermont-dessous à Bazens, des panoramas sur la vallée de la Garonne]]></desc>
  </metadata>
  <trk>
    <name><![CDATA[ClermontDessousBazens]]></name>
    <trkseg>
      <trkpt lat="44.24694" lon="0.42146">
        <ele>105</ele>
        <time>2005-10-07T13:31:22Z</time>
      </trkpt>
      <trkpt lat="44.24702" lon="0.421">
        <ele>105</ele>
        <time>2005-10-07T13:31:22Z</time>
      </trkpt>
      <trkpt lat="44.24706" lon="0.42044">
        <ele>106</ele>
        <time>2005-10-07T13:31:22Z</time>
      </trkpt>
      <trkpt lat="44.24708" lon="0.41997">
        <ele>105</ele>
        <time>2005-10-07T13:31:22Z</time>
      </trkpt>
      <trkpt lat="44.24703" lon="0.41969">
        <ele>106</ele>
        <time>2005-10-07T13:31:22Z</time>
      </trkpt>
      <trkpt lat="44.24694" lon="0.41953">
        <ele>106</ele>
        <time>2005-10-07T13:31:22Z</time>
      </trkpt>
      <trkpt lat="44.24677" lon="0.41955">
        <ele>108</ele>
        <time>2005-10-07T13:31:22Z</time>
      </trkpt>
      <trkpt lat="44.24664" lon="0.41962">
        <ele>110</ele>
        <time>2005-10-07T13:31:22Z</time>
      </trkpt>
      <trkpt lat="44.24651" lon="0.41984">
        <ele>110</ele>
        <time>2005-10-07T13:31:22Z</time>
      </trkpt>
      <trkpt lat="44.24641" lon="0.42005">
        <ele>110</ele>
        <time>2005-10-07T13:31:22Z</time>
      </trkpt>
      <trkpt lat="44.24636" lon="0.4203">
        <ele>110</ele>
        <time>2005-10-07T13:31:22Z</time>
      </trkpt>
      <trkpt lat="44.24626" lon="0.42048">
        <ele>109</ele>
        <time>2005-10-07T13:31:22Z</time>
      </trkpt>
      <trkpt lat="44.24604" lon="0.42081">
        <ele>104</ele>
        <time>2005-10-07T13:31:22Z</time>
      </trkpt>
      <trkpt lat="44.24589" lon="0.42104">
        <ele>99</ele>
        <time>2005-10-07T13:31:22Z</time>
      </trkpt>
      <trkpt lat="44.24578" lon="0.42128">
        <ele>97</ele>
        <time>2005-10-07T13:31:22Z</time>
      </trkpt>
      <trkpt lat="44.24571" lon="0.42167">
        <ele>98</ele>
        <time>2005-10-07T13:31:22Z</time>
      </trkpt>
      <trkpt lat="44.24555" lon="0.422">
        <ele>97</ele>
        <time>2005-10-07T13:31:22Z</time>
      </trkpt>
      <trkpt lat="44.24512" lon="0.4226">
        <ele>90</ele>
        <time>2005-10-07T13:31:22Z</time>
      </trkpt>
      <trkpt lat="44.24475" lon="0.42316">
        <ele>87</ele>
        <time>2005-10-07T13:31:22Z</time>
      </trkpt>
      <trkpt lat="44.24447" lon="0.42348">
        <ele>84</ele>
        <time>2005-10-07T13:31:22Z</time>
      </trkpt>
      <trkpt lat="44.24425" lon="0.42358">
        <ele>80</ele>
        <time>2005-10-07T13:31:22Z</time>
      </trkpt>
      <trkpt lat="44.24401" lon="0.42369">
        <ele>76</ele>
        <time>2005-10-07T13:31:22Z</time>
      </trkpt>
      <trkpt lat="44.24379" lon="0.42395">
        <ele>73</ele>
        <time>2005-10-07T13:31:22Z</time>
      </trkpt>
      <trkpt lat="44.24353" lon="0.42433">
        <ele>71</ele>
        <time>2005-10-07T13:31:22Z</time>
      </trkpt>
      <trkpt lat="44.2433" lon="0.42471">
        <ele>69</ele>
        <time>2005-10-07T13:31:22Z</time>
      </trkpt>
      <trkpt lat="44.24299" lon="0.42527">
        <ele>68</ele>
        <time>2005-10-07T13:31:22Z</time>
      </trkpt>
      <trkpt lat="44.24268" lon="0.4257">
        <ele>66</ele>
        <time>2005-10-07T13:31:22Z</time>
      </trkpt>
      <trkpt lat="44.24248" lon="0.42614">
        <ele>66</ele>
        <time>2005-10-07T13:31:22Z</time>
      </trkpt>
      <trkpt lat="44.24229" lon="0.42653">
        <ele>65</ele>
        <time>2005-10-07T13:31:22Z</time>
      </trkpt>
      <trkpt lat="44.24212" lon="0.42684">
        <ele>63</ele>
        <time>2005-10-07T13:31:22Z</time>
      </trkpt>
      <trkpt lat="44.24186" lon="0.42738">
        <ele>60</ele>
        <time>2005-10-07T13:31:22Z</time>
      </trkpt>
      <trkpt lat="44.24175" lon="0.42776">
        <ele>59</ele>
        <time>2005-10-07T13:31:22Z</time>
      </trkpt>
      <trkpt lat="44.24174" lon="0.4282">
        <ele>60</ele>
        <time>2005-10-07T13:31:22Z</time>
      </trkpt>
      <trkpt lat="44.24175" lon="0.42861">
        <ele>62</ele>
        <time>2005-10-07T13:31:22Z</time>
      </trkpt>
      <trkpt lat="44.24176" lon="0.42894">
        <ele>65</ele>
        <time>2005-10-07T13:31:22Z</time>
      </trkpt>
      <trkpt lat="44.24166" lon="0.42922">
        <ele>66</ele>
        <time>2005-10-07T13:31:22Z</time>
      </trkpt>
      <trkpt lat="44.24147" lon="0.42967">
        <ele>64</ele>
        <time>2005-10-07T13:31:22Z</time>
      </trkpt>
      <trkpt lat="44.24133" lon="0.43012">
        <ele>63</ele>
        <time>2005-10-07T13:31:22Z</time>
      </trkpt>
      <trkpt lat="44.24122" lon="0.43057">
        <ele>63</ele>
        <time>2005-10-07T13:31:22Z</time>
      </trkpt>
      <trkpt lat="44.24112" lon="0.4309">
        <ele>62</ele>
        <time>2005-10-07T13:31:22Z</time>
      </trkpt>
      <trkpt lat="44.24099" lon="0.43125">
        <ele>61</ele>
        <time>2005-10-07T13:31:22Z</time>
      </trkpt>
      <trkpt lat="44.24086" lon="0.43169">
        <ele>62</ele>
        <time>2005-10-07T13:31:22Z</time>
      </trkpt>
      <trkpt lat="44.24079" lon="0.43207">
        <ele>63</ele>
        <time>2005-10-07T13:31:22Z</time>
      </trkpt>
      <trkpt lat="44.24076" lon="0.4325">
        <ele>65</ele>
        <time>2005-10-07T13:31:22Z</time>
      </trkpt>
      <trkpt lat="44.24073" lon="0.43288">
        <ele>66</ele>
        <time>2005-10-07T13:31:22Z</time>
      </trkpt>
      <trkpt lat="44.24061" lon="0.43334">
        <ele>66</ele>
        <time>2005-10-07T13:31:22Z</time>
      </trkpt>
      <trkpt lat="44.2404" lon="0.43417">
        <ele>67</ele>
        <time>2005-10-07T13:31:22Z</time>
      </trkpt>
      <trkpt lat="44.24031" lon="0.43465">
        <ele>69</ele>
        <time>2005-10-07T13:31:22Z</time>
      </trkpt>
      <trkpt lat="44.24024" lon="0.43509">
        <ele>70</ele>
        <time>2005-10-07T13:31:22Z</time>
      </trkpt>
      <trkpt lat="44.24021" lon="0.4354">
        <ele>70</ele>
        <time>2005-10-07T13:31:22Z</time>
      </trkpt>
      <trkpt lat="44.2402" lon="0.43575">
        <ele>69</ele>
        <time>2005-10-07T13:31:22Z</time>
      </trkpt>
      <trkpt lat="44.24029" lon="0.43604">
        <ele>69</ele>
        <time>2005-10-07T13:31:22Z</time>
      </trkpt>
      <trkpt lat="44.24046" lon="0.4363">
        <ele>72</ele>
        <time>2005-10-07T13:31:22Z</time>
      </trkpt>
      <trkpt lat="44.24056" lon="0.43659">
        <ele>74</ele>
        <time>2005-10-07T13:31:22Z</time>
      </trkpt>
      <trkpt lat="44.24066" lon="0.43707">
        <ele>75</ele>
        <time>2005-10-07T13:31:22Z</time>
      </trkpt>
      <trkpt lat="44.24067" lon="0.43743">
        <ele>74</ele>
        <time>2005-10-07T13:31:22Z</time>
      </trkpt>
      <trkpt lat="44.24068" lon="0.43781">
        <ele>74</ele>
        <time>2005-10-07T13:31:22Z</time>
      </trkpt>
      <trkpt lat="44.24072" lon="0.43819">
        <ele>73</ele>
        <time>2005-10-07T13:31:22Z</time>
      </trkpt>
      <trkpt lat="44.24075" lon="0.43864">
        <ele>72</ele>
        <time>2005-10-07T13:31:22Z</time>
      </trkpt>
      <trkpt lat="44.24078" lon="0.43901">
        <ele>71</ele>
        <time>2005-10-07T13:31:22Z</time>
      </trkpt>
      <trkpt lat="44.24081" lon="0.43946">
        <ele>69</ele>
        <time>2005-10-07T13:31:22Z</time>
      </trkpt>
      <trkpt lat="44.24078" lon="0.43989">
        <ele>65</ele>
        <time>2005-10-07T13:31:22Z</time>
      </trkpt>
      <trkpt lat="44.24076" lon="0.44036">
        <ele>65</ele>
        <time>2005-10-07T13:31:22Z</time>
      </trkpt>
      <trkpt lat="44.24097" lon="0.44046">
        <ele>68</ele>
        <time>2005-10-07T13:31:22Z</time>
      </trkpt>
      <trkpt lat="44.24123" lon="0.44048">
        <ele>72</ele>
        <time>2005-10-07T13:31:22Z</time>
      </trkpt>
      <trkpt lat="44.24156" lon="0.44056">
        <ele>79</ele>
        <time>2005-10-07T13:31:22Z</time>
      </trkpt>
      <trkpt lat="44.24187" lon="0.44071">
        <ele>87</ele>
        <time>2005-10-07T13:31:22Z</time>
      </trkpt>
      <trkpt lat="44.24212" lon="0.44084">
        <ele>94</ele>
        <time>2005-10-07T13:31:22Z</time>
      </trkpt>
      <trkpt lat="44.24228" lon="0.44101">
        <ele>98</ele>
        <time>2005-10-07T13:31:22Z</time>
      </trkpt>
      <trkpt lat="44.24247" lon="0.44125">
        <ele>103</ele>
        <time>2005-10-07T13:31:22Z</time>
      </trkpt>
      <trkpt lat="44.24258" lon="0.44148">
        <ele>110</ele>
        <time>2005-10-07T13:31:22Z</time>
      </trkpt>
      <trkpt lat="44.2426" lon="0.44176">
        <ele>114</ele>
        <time>2005-10-07T13:31:22Z</time>
      </trkpt>
      <trkpt lat="44.24262" lon="0.44225">
        <ele>121</ele>
        <time>2005-10-07T13:31:22Z</time>
      </trkpt>
      <trkpt lat="44.24262" lon="0.44255">
        <ele>125</ele>
        <time>2005-10-07T13:31:22Z</time>
      </trkpt>
      <trkpt lat="44.24267" lon="0.44275">
        <ele>130</ele>
        <time>2005-10-07T13:31:22Z</time>
      </trkpt>
      <trkpt lat="44.2428" lon="0.44291">
        <ele>134</ele>
        <time>2005-10-07T13:31:22Z</time>
      </trkpt>
      <trkpt lat="44.24296" lon="0.44303">
        <ele>137</ele>
        <time>2005-10-07T13:31:22Z</time>
      </trkpt>
      <trkpt lat="44.24319" lon="0.4432">
        <ele>145</ele>
        <time>2005-10-07T13:31:22Z</time>
      </trkpt>
      <trkpt lat="44.24333" lon="0.44335">
        <ele>150</ele>
        <time>2005-10-07T13:31:22Z</time>
      </trkpt>
      <trkpt lat="44.24343" lon="0.4436">
        <ele>155</ele>
        <time>2005-10-07T13:31:22Z</time>
      </trkpt>
      <trkpt lat="44.24352" lon="0.44392">
        <ele>157</ele>
        <time>2005-10-07T13:31:22Z</time>
      </trkpt>
      <trkpt lat="44.24362" lon="0.44433">
        <ele>161</ele>
        <time>2005-10-07T13:31:22Z</time>
      </trkpt>
      <trkpt lat="44.24373" lon="0.44462">
        <ele>164</ele>
        <time>2005-10-07T13:31:22Z</time>
      </trkpt>
      <trkpt lat="44.24383" lon="0.44479">
        <ele>166</ele>
        <time>2005-10-07T13:31:22Z</time>
      </trkpt>
      <trkpt lat="44.24405" lon="0.44492">
        <ele>168</ele>
        <time>2005-10-07T13:31:22Z</time>
      </trkpt>
      <trkpt lat="44.24426" lon="0.44501">
        <ele>170</ele>
        <time>2005-10-07T13:31:22Z</time>
      </trkpt>
      <trkpt lat="44.24448" lon="0.44514">
        <ele>171</ele>
        <time>2005-10-07T13:31:22Z</time>
      </trkpt>
      <trkpt lat="44.24476" lon="0.44473">
        <ele>171</ele>
        <time>2005-10-07T13:31:22Z</time>
      </trkpt>
      <trkpt lat="44.24486" lon="0.44446">
        <ele>171</ele>
        <time>2005-10-07T13:31:22Z</time>
      </trkpt>
      <trkpt lat="44.24499" lon="0.444">
        <ele>170</ele>
        <time>2005-10-07T13:31:22Z</time>
      </trkpt>
      <trkpt lat="44.24643" lon="0.44406">
        <ele>160</ele>
        <time>2005-10-07T13:31:22Z</time>
      </trkpt>
      <trkpt lat="44.24734" lon="0.44404">
        <ele>146</ele>
        <time>2005-10-07T13:31:22Z</time>
      </trkpt>
      <trkpt lat="44.24736" lon="0.44384">
        <ele>145</ele>
        <time>2005-10-07T13:31:22Z</time>
      </trkpt>
      <trkpt lat="44.24735" lon="0.44358">
        <ele>146</ele>
        <time>2005-10-07T13:31:22Z</time>
      </trkpt>
      <trkpt lat="44.2473" lon="0.44339">
        <ele>147</ele>
        <time>2005-10-07T13:31:22Z</time>
      </trkpt>
      <trkpt lat="44.2475" lon="0.44341">
        <ele>142</ele>
        <time>2005-10-07T13:31:22Z</time>
      </trkpt>
      <trkpt lat="44.24776" lon="0.44358">
        <ele>137</ele>
        <time>2005-10-07T13:31:22Z</time>
      </trkpt>
      <trkpt lat="44.24814" lon="0.44392">
        <ele>129</ele>
        <time>2005-10-07T13:31:22Z</time>
      </trkpt>
      <trkpt lat="44.24826" lon="0.44398">
        <ele>128</ele>
        <time>2005-10-07T13:31:22Z</time>
      </trkpt>
      <trkpt lat="44.24848" lon="0.44396">
        <ele>123</ele>
        <time>2005-10-07T13:31:22Z</time>
      </trkpt>
      <trkpt lat="44.2488" lon="0.4439">
        <ele>115</ele>
        <time>2005-10-07T13:31:22Z</time>
      </trkpt>
      <trkpt lat="44.24911" lon="0.44381">
        <ele>108</ele>
        <time>2005-10-07T13:31:22Z</time>
      </trkpt>
      <trkpt lat="44.2493" lon="0.44409">
        <ele>105</ele>
        <time>2005-10-07T13:31:22Z</time>
      </trkpt>
      <trkpt lat="44.24956" lon="0.44417">
        <ele>100</ele>
        <time>2005-10-07T13:31:22Z</time>
      </trkpt>
      <trkpt lat="44.25006" lon="0.4442">
        <ele>91</ele>
        <time>2005-10-07T13:31:22Z</time>
      </trkpt>
      <trkpt lat="44.2504" lon="0.44418">
        <ele>85</ele>
        <time>2005-10-07T13:31:22Z</time>
      </trkpt>
      <trkpt lat="44.25071" lon="0.44393">
        <ele>81</ele>
        <time>2005-10-07T13:31:22Z</time>
      </trkpt>
      <trkpt lat="44.25104" lon="0.44362">
        <ele>78</ele>
        <time>2005-10-07T13:31:22Z</time>
      </trkpt>
      <trkpt lat="44.25121" lon="0.44334">
        <ele>77</ele>
        <time>2005-10-07T13:31:22Z</time>
      </trkpt>
      <trkpt lat="44.2514" lon="0.443">
        <ele>75</ele>
        <time>2005-10-07T13:31:22Z</time>
      </trkpt>
      <trkpt lat="44.25148" lon="0.44242">
        <ele>74</ele>
        <time>2005-10-07T13:31:22Z</time>
      </trkpt>
      <trkpt lat="44.2519" lon="0.44245">
        <ele>69</ele>
        <time>2005-10-07T13:31:22Z</time>
      </trkpt>
      <trkpt lat="44.25214" lon="0.44158">
        <ele>67</ele>
        <time>2005-10-07T13:31:22Z</time>
      </trkpt>
      <trkpt lat="44.25246" lon="0.44159">
        <ele>63</ele>
        <time>2005-10-07T13:31:22Z</time>
      </trkpt>
      <trkpt lat="44.2527" lon="0.44169">
        <ele>62</ele>
        <time>2005-10-07T13:31:22Z</time>
      </trkpt>
      <trkpt lat="44.25292" lon="0.44182">
        <ele>61</ele>
        <time>2005-10-07T13:31:22Z</time>
      </trkpt>
      <trkpt lat="44.25308" lon="0.44177">
        <ele>61</ele>
        <time>2005-10-07T13:31:22Z</time>
      </trkpt>
      <trkpt lat="44.25322" lon="0.44166">
        <ele>61</ele>
        <time>2005-10-07T13:31:22Z</time>
      </trkpt>
      <trkpt lat="44.25339" lon="0.44143">
        <ele>59</ele>
        <time>2005-10-07T13:31:22Z</time>
      </trkpt>
      <trkpt lat="44.25357" lon="0.4411">
        <ele>58</ele>
        <time>2005-10-07T13:31:22Z</time>
      </trkpt>
      <trkpt lat="44.25381" lon="0.44073">
        <ele>56</ele>
        <time>2005-10-07T13:31:22Z</time>
      </trkpt>
      <trkpt lat="44.2541" lon="0.44052">
        <ele>55</ele>
        <time>2005-10-07T13:31:22Z</time>
      </trkpt>
      <trkpt lat="44.2544" lon="0.44032">
        <ele>54</ele>
        <time>2005-10-07T13:31:22Z</time>
      </trkpt>
      <trkpt lat="44.25464" lon="0.44005">
        <ele>53</ele>
        <time>2005-10-07T13:31:22Z</time>
      </trkpt>
      <trkpt lat="44.25529" lon="0.43954">
        <ele>50</ele>
        <time>2005-10-07T13:31:22Z</time>
      </trkpt>
      <trkpt lat="44.25518" lon="0.43885">
        <ele>51</ele>
        <time>2005-10-07T13:31:22Z</time>
      </trkpt>
      <trkpt lat="44.25509" lon="0.43826">
        <ele>51</ele>
        <time>2005-10-07T13:31:22Z</time>
      </trkpt>
      <trkpt lat="44.25497" lon="0.43753">
        <ele>50</ele>
        <time>2005-10-07T13:31:22Z</time>
      </trkpt>
      <trkpt lat="44.25597" lon="0.43703">
        <ele>49</ele>
        <time>2005-10-07T13:31:22Z</time>
      </trkpt>
      <trkpt lat="44.25681" lon="0.43664">
        <ele>50</ele>
        <time>2005-10-07T13:31:22Z</time>
      </trkpt>
      <trkpt lat="44.25695" lon="0.43806">
        <ele>49</ele>
        <time>2005-10-07T13:31:22Z</time>
      </trkpt>
      <trkpt lat="44.25715" lon="0.43796">
        <ele>50</ele>
        <time>2005-10-07T13:31:22Z</time>
      </trkpt>
      <trkpt lat="44.2574" lon="0.43783">
        <ele>51</ele>
        <time>2005-10-07T13:31:22Z</time>
      </trkpt>
      <trkpt lat="44.25809" lon="0.4374">
        <ele>57</ele>
        <time>2005-10-07T13:31:22Z</time>
      </trkpt>
      <trkpt lat="44.25829" lon="0.43737">
        <ele>60</ele>
        <time>2005-10-07T13:31:22Z</time>
      </trkpt>
      <trkpt lat="44.25841" lon="0.43814">
        <ele>58</ele>
        <time>2005-10-07T13:31:22Z</time>
      </trkpt>
      <trkpt lat="44.25843" lon="0.43845">
        <ele>58</ele>
        <time>2005-10-07T13:31:22Z</time>
      </trkpt>
      <trkpt lat="44.25849" lon="0.43906">
        <ele>58</ele>
        <time>2005-10-07T13:31:22Z</time>
      </trkpt>
      <trkpt lat="44.25859" lon="0.43988">
        <ele>58</ele>
        <time>2005-10-07T13:31:22Z</time>
      </trkpt>
      <trkpt lat="44.25875" lon="0.44103">
        <ele>58</ele>
        <time>2005-10-07T13:31:22Z</time>
      </trkpt>
      <trkpt lat="44.25883" lon="0.44183">
        <ele>58</ele>
        <time>2005-10-07T13:31:22Z</time>
      </trkpt>
      <trkpt lat="44.25896" lon="0.4417">
        <ele>60</ele>
        <time>2005-10-07T13:31:22Z</time>
      </trkpt>
      <trkpt lat="44.25921" lon="0.44122">
        <ele>65</ele>
        <time>2005-10-07T13:31:22Z</time>
      </trkpt>
      <trkpt lat="44.25935" lon="0.44056">
        <ele>71</ele>
        <time>2005-10-07T13:31:22Z</time>
      </trkpt>
      <trkpt lat="44.25937" lon="0.43984">
        <ele>75</ele>
        <time>2005-10-07T13:31:22Z</time>
      </trkpt>
      <trkpt lat="44.2594" lon="0.43882">
        <ele>80</ele>
        <time>2005-10-07T13:31:22Z</time>
      </trkpt>
      <trkpt lat="44.25944" lon="0.43799">
        <ele>84</ele>
        <time>2005-10-07T13:31:22Z</time>
      </trkpt>
      <trkpt lat="44.25948" lon="0.43779">
        <ele>85</ele>
        <time>2005-10-07T13:31:22Z</time>
      </trkpt>
      <trkpt lat="44.25962" lon="0.4375">
        <ele>89</ele>
        <time>2005-10-07T13:31:22Z</time>
      </trkpt>
      <trkpt lat="44.25982" lon="0.43727">
        <ele>95</ele>
        <time>2005-10-07T13:31:22Z</time>
      </trkpt>
      <trkpt lat="44.26004" lon="0.43689">
        <ele>100</ele>
        <time>2005-10-07T13:31:22Z</time>
      </trkpt>
      <trkpt lat="44.26009" lon="0.43666">
        <ele>101</ele>
        <time>2005-10-07T13:31:22Z</time>
      </trkpt>
      <trkpt lat="44.26013" lon="0.43639">
        <ele>104</ele>
        <time>2005-10-07T13:31:22Z</time>
      </trkpt>
      <trkpt lat="44.26022" lon="0.43628">
        <ele>105</ele>
        <time>2005-10-07T13:31:22Z</time>
      </trkpt>
      <trkpt lat="44.26041" lon="0.43624">
        <ele>108</ele>
        <time>2005-10-07T13:31:22Z</time>
      </trkpt>
      <trkpt lat="44.26064" lon="0.43621">
        <ele>111</ele>
        <time>2005-10-07T13:31:22Z</time>
      </trkpt>
      <trkpt lat="44.26079" lon="0.43608">
        <ele>113</ele>
        <time>2005-10-07T13:31:22Z</time>
      </trkpt>
      <trkpt lat="44.26083" lon="0.43591">
        <ele>114</ele>
        <time>2005-10-07T13:31:22Z</time>
      </trkpt>
      <trkpt lat="44.26077" lon="0.43574">
        <ele>115</ele>
        <time>2005-10-07T13:31:22Z</time>
      </trkpt>
      <trkpt lat="44.26066" lon="0.43564">
        <ele>116</ele>
        <time>2005-10-07T13:31:22Z</time>
      </trkpt>
      <trkpt lat="44.2605" lon="0.43555">
        <ele>117</ele>
        <time>2005-10-07T13:31:22Z</time>
      </trkpt>
      <trkpt lat="44.26029" lon="0.43552">
        <ele>117</ele>
        <time>2005-10-07T13:31:22Z</time>
      </trkpt>
      <trkpt lat="44.26012" lon="0.43545">
        <ele>117</ele>
        <time>2005-10-07T13:31:22Z</time>
      </trkpt>
      <trkpt lat="44.26004" lon="0.4353">
        <ele>120</ele>
        <time>2005-10-07T13:31:22Z</time>
      </trkpt>
      <trkpt lat="44.26003" lon="0.43509">
        <ele>123</ele>
        <time>2005-10-07T13:31:22Z</time>
      </trkpt>
      <trkpt lat="44.26006" lon="0.43486">
        <ele>127</ele>
        <time>2005-10-07T13:31:22Z</time>
      </trkpt>
      <trkpt lat="44.26016" lon="0.43454">
        <ele>130</ele>
        <time>2005-10-07T13:31:22Z</time>
      </trkpt>
      <trkpt lat="44.2603" lon="0.43415">
        <ele>135</ele>
        <time>2005-10-07T13:31:22Z</time>
      </trkpt>
      <trkpt lat="44.26036" lon="0.43363">
        <ele>138</ele>
        <time>2005-10-07T13:31:22Z</time>
      </trkpt>
      <trkpt lat="44.26046" lon="0.43337">
        <ele>141</ele>
        <time>2005-10-07T13:31:22Z</time>
      </trkpt>
      <trkpt lat="44.26064" lon="0.43302">
        <ele>146</ele>
        <time>2005-10-07T13:31:22Z</time>
      </trkpt>
      <trkpt lat="44.26082" lon="0.43266">
        <ele>149</ele>
        <time>2005-10-07T13:31:22Z</time>
      </trkpt>
      <trkpt lat="44.26109" lon="0.43221">
        <ele>151</ele>
        <time>2005-10-07T13:31:22Z</time>
      </trkpt>
      <trkpt lat="44.26151" lon="0.43166">
        <ele>150</ele>
        <time>2005-10-07T13:31:22Z</time>
      </trkpt>
      <trkpt lat="44.26199" lon="0.43096">
        <ele>148</ele>
        <time>2005-10-07T13:31:22Z</time>
      </trkpt>
      <trkpt lat="44.26255" lon="0.43017">
        <ele>147</ele>
        <time>2005-10-07T13:31:22Z</time>
      </trkpt>
      <trkpt lat="44.26285" lon="0.42966">
        <ele>148</ele>
        <time>2005-10-07T13:31:22Z</time>
      </trkpt>
      <trkpt lat="44.263" lon="0.42938">
        <ele>151</ele>
        <time>2005-10-07T13:31:22Z</time>
      </trkpt>
      <trkpt lat="44.26316" lon="0.42901">
        <ele>154</ele>
        <time>2005-10-07T13:31:22Z</time>
      </trkpt>
      <trkpt lat="44.2635" lon="0.42808">
        <ele>161</ele>
        <time>2005-10-07T13:31:22Z</time>
      </trkpt>
      <trkpt lat="44.26353" lon="0.4274">
        <ele>160</ele>
        <time>2005-10-07T13:31:22Z</time>
      </trkpt>
      <trkpt lat="44.26357" lon="0.42721">
        <ele>161</ele>
        <time>2005-10-07T13:31:22Z</time>
      </trkpt>
      <trkpt lat="44.26365" lon="0.42704">
        <ele>162</ele>
        <time>2005-10-07T13:31:22Z</time>
      </trkpt>
      <trkpt lat="44.26387" lon="0.4268">
        <ele>162</ele>
        <time>2005-10-07T13:31:22Z</time>
      </trkpt>
      <trkpt lat="44.26394" lon="0.42656">
        <ele>162</ele>
        <time>2005-10-07T13:31:22Z</time>
      </trkpt>
      <trkpt lat="44.26435" lon="0.42647">
        <ele>163</ele>
        <time>2005-10-07T13:31:22Z</time>
      </trkpt>
      <trkpt lat="44.26467" lon="0.42635">
        <ele>162</ele>
        <time>2005-10-07T13:31:22Z</time>
      </trkpt>
      <trkpt lat="44.26464" lon="0.42613">
        <ele>162</ele>
        <time>2005-10-07T13:31:22Z</time>
      </trkpt>
      <trkpt lat="44.26466" lon="0.42578">
        <ele>162</ele>
        <time>2005-10-07T13:31:22Z</time>
      </trkpt>
      <trkpt lat="44.2647" lon="0.42524">
        <ele>162</ele>
        <time>2005-10-07T13:31:22Z</time>
      </trkpt>
      <trkpt lat="44.26467" lon="0.42472">
        <ele>161</ele>
        <time>2005-10-07T13:31:22Z</time>
      </trkpt>
      <trkpt lat="44.26462" lon="0.42438">
        <ele>161</ele>
        <time>2005-10-07T13:31:22Z</time>
      </trkpt>
      <trkpt lat="44.2645" lon="0.4241">
        <ele>160</ele>
        <time>2005-10-07T13:31:22Z</time>
      </trkpt>
      <trkpt lat="44.26428" lon="0.42375">
        <ele>160</ele>
        <time>2005-10-07T13:31:22Z</time>
      </trkpt>
      <trkpt lat="44.26408" lon="0.4235">
        <ele>161</ele>
        <time>2005-10-07T13:31:22Z</time>
      </trkpt>
      <trkpt lat="44.26376" lon="0.42341">
        <ele>162</ele>
        <time>2005-10-07T13:31:22Z</time>
      </trkpt>
      <trkpt lat="44.26373" lon="0.42316">
        <ele>162</ele>
        <time>2005-10-07T13:31:22Z</time>
      </trkpt>
      <trkpt lat="44.26369" lon="0.42288">
        <ele>163</ele>
        <time>2005-10-07T13:31:22Z</time>
      </trkpt>
      <trkpt lat="44.26356" lon="0.42239">
        <ele>163</ele>
        <time>2005-10-07T13:31:22Z</time>
      </trkpt>
      <trkpt lat="44.26326" lon="0.42244">
        <ele>162</ele>
        <time>2005-10-07T13:31:22Z</time>
      </trkpt>
      <trkpt lat="44.2633" lon="0.42275">
        <ele>162</ele>
        <time>2005-10-07T13:31:22Z</time>
      </trkpt>
      <trkpt lat="44.26235" lon="0.42272">
        <ele>156</ele>
        <time>2005-10-07T13:31:22Z</time>
      </trkpt>
      <trkpt lat="44.2624" lon="0.42236">
        <ele>153</ele>
        <time>2005-10-07T13:31:22Z</time>
      </trkpt>
      <trkpt lat="44.26217" lon="0.42269">
        <ele>155</ele>
        <time>2005-10-07T13:31:22Z</time>
      </trkpt>
      <trkpt lat="44.26203" lon="0.42271">
        <ele>154</ele>
        <time>2005-10-07T13:31:22Z</time>
      </trkpt>
      <trkpt lat="44.26175" lon="0.42228">
        <ele>144</ele>
        <time>2005-10-07T13:31:22Z</time>
      </trkpt>
      <trkpt lat="44.26147" lon="0.42197">
        <ele>138</ele>
        <time>2005-10-07T13:31:22Z</time>
      </trkpt>
      <trkpt lat="44.26124" lon="0.42171">
        <ele>134</ele>
        <time>2005-10-07T13:31:22Z</time>
      </trkpt>
      <trkpt lat="44.26104" lon="0.42154">
        <ele>131</ele>
        <time>2005-10-07T13:31:22Z</time>
      </trkpt>
      <trkpt lat="44.26076" lon="0.42135">
        <ele>128</ele>
        <time>2005-10-07T13:31:22Z</time>
      </trkpt>
      <trkpt lat="44.26049" lon="0.42123">
        <ele>124</ele>
        <time>2005-10-07T13:31:22Z</time>
      </trkpt>
      <trkpt lat="44.26028" lon="0.42121">
        <ele>122</ele>
        <time>2005-10-07T13:31:22Z</time>
      </trkpt>
      <trkpt lat="44.26001" lon="0.42104">
        <ele>117</ele>
        <time>2005-10-07T13:31:22Z</time>
      </trkpt>
      <trkpt lat="44.25957" lon="0.42081">
        <ele>110</ele>
        <time>2005-10-07T13:31:22Z</time>
      </trkpt>
      <trkpt lat="44.25885" lon="0.42049">
        <ele>101</ele>
        <time>2005-10-07T13:31:22Z</time>
      </trkpt>
      <trkpt lat="44.25836" lon="0.42024">
        <ele>97</ele>
        <time>2005-10-07T13:31:22Z</time>
      </trkpt>
      <trkpt lat="44.2579" lon="0.42022">
        <ele>93</ele>
        <time>2005-10-07T13:31:22Z</time>
      </trkpt>
      <trkpt lat="44.2569" lon="0.42024">
        <ele>85</ele>
        <time>2005-10-07T13:31:22Z</time>
      </trkpt>
      <trkpt lat="44.25641" lon="0.42026">
        <ele>81</ele>
        <time>2005-10-07T13:31:22Z</time>
      </trkpt>
      <trkpt lat="44.25604" lon="0.42038">
        <ele>78</ele>
        <time>2005-10-07T13:31:22Z</time>
      </trkpt>
      <trkpt lat="44.25576" lon="0.42039">
        <ele>77</ele>
        <time>2005-10-07T13:31:22Z</time>
      </trkpt>
      <trkpt lat="44.25481" lon="0.42044">
        <ele>71</ele>
        <time>2005-10-07T13:31:22Z</time>
      </trkpt>
      <trkpt lat="44.25402" lon="0.42054">
        <ele>60</ele>
        <time>2005-10-07T13:31:22Z</time>
      </trkpt>
      <trkpt lat="44.25374" lon="0.42057">
        <ele>55</ele>
        <time>2005-10-07T13:31:22Z</time>
      </trkpt>
      <trkpt lat="44.25218" lon="0.42145">
        <ele>43</ele>
        <time>2005-10-07T13:31:22Z</time>
      </trkpt>
      <trkpt lat="44.252" lon="0.42163">
        <ele>41</ele>
        <time>2005-10-07T13:31:22Z</time>
      </trkpt>
      <trkpt lat="44.25186" lon="0.42192">
        <ele>39</ele>
        <time>2005-10-07T13:31:22Z</time>
      </trkpt>
      <trkpt lat="44.25182" lon="0.4221">
        <ele>39</ele>
        <time>2005-10-07T13:31:22Z</time>
      </trkpt>
      <trkpt lat="44.2518" lon="0.42242">
        <ele>39</ele>
        <time>2005-10-07T13:31:22Z</time>
      </trkpt>
      <trkpt lat="44.25181" lon="0.42295">
        <ele>40</ele>
        <time>2005-10-07T13:31:22Z</time>
      </trkpt>
      <trkpt lat="44.25183" lon="0.42329">
        <ele>41</ele>
        <time>2005-10-07T13:31:22Z</time>
      </trkpt>
      <trkpt lat="44.25184" lon="0.42528">
        <ele>45</ele>
        <time>2005-10-07T13:31:22Z</time>
      </trkpt>
      <trkpt lat="44.2514" lon="0.42536">
        <ele>47</ele>
        <time>2005-10-07T13:31:22Z</time>
      </trkpt>
      <trkpt lat="44.25128" lon="0.42527">
        <ele>48</ele>
        <time>2005-10-07T13:31:22Z</time>
      </trkpt>
      <trkpt lat="44.25083" lon="0.42448">
        <ele>51</ele>
        <time>2005-10-07T13:31:22Z</time>
      </trkpt>
      <trkpt lat="44.25062" lon="0.4241">
        <ele>53</ele>
        <time>2005-10-07T13:31:22Z</time>
      </trkpt>
      <trkpt lat="44.25049" lon="0.42395">
        <ele>55</ele>
        <time>2005-10-07T13:31:22Z</time>
      </trkpt>
      <trkpt lat="44.25034" lon="0.42384">
        <ele>57</ele>
        <time>2005-10-07T13:31:22Z</time>
      </trkpt>
      <trkpt lat="44.25021" lon="0.42385">
        <ele>60</ele>
        <time>2005-10-07T13:31:22Z</time>
      </trkpt>
      <trkpt lat="44.25011" lon="0.42334">
        <ele>61</ele>
        <time>2005-10-07T13:31:22Z</time>
      </trkpt>
      <trkpt lat="44.25003" lon="0.42292">
        <ele>62</ele>
        <time>2005-10-07T13:31:22Z</time>
      </trkpt>
      <trkpt lat="44.24998" lon="0.42253">
        <ele>62</ele>
        <time>2005-10-07T13:31:22Z</time>
      </trkpt>
      <trkpt lat="44.24981" lon="0.42231">
        <ele>66</ele>
        <time>2005-10-07T13:31:22Z</time>
      </trkpt>
      <trkpt lat="44.24953" lon="0.42229">
        <ele>75</ele>
        <time>2005-10-07T13:31:22Z</time>
      </trkpt>
      <trkpt lat="44.24928" lon="0.42222">
        <ele>81</ele>
        <time>2005-10-07T13:31:22Z</time>
      </trkpt>
      <trkpt lat="44.24905" lon="0.42221">
        <ele>84</ele>
        <time>2005-10-07T13:31:22Z</time>
      </trkpt>
      <trkpt lat="44.24879" lon="0.42224">
        <ele>88</ele>
        <time>2005-10-07T13:31:22Z</time>
      </trkpt>
      <trkpt lat="44.24845" lon="0.42233">
        <ele>93</ele>
        <time>2005-10-07T13:31:22Z</time>
      </trkpt>
      <trkpt lat="44.24824" lon="0.4223">
        <ele>94</ele>
        <time>2005-10-07T13:31:22Z</time>
      </trkpt>
      <trkpt lat="44.24794" lon="0.42225">
        <ele>95</ele>
        <time>2005-10-07T13:31:22Z</time>
      </trkpt>
      <trkpt lat="44.24761" lon="0.42214">
        <ele>95</ele>
        <time>2005-10-07T13:31:22Z</time>
      </trkpt>
      <trkpt lat="44.24739" lon="0.42202">
        <ele>98</ele>
        <time>2005-10-07T13:31:22Z</time>
      </trkpt>
      <trkpt lat="44.24714" lon="0.42189">
        <ele>102</ele>
        <time>2005-10-07T13:31:22Z</time>
      </trkpt>
      <trkpt lat="44.24689" lon="0.42171">
        <ele>106</ele>
        <time>2005-10-07T13:31:22Z</time>
      </trkpt>
      <trkpt lat="44.24694" lon="0.42146">
        <ele>105</ele>
        <time>2005-10-07T13:31:22Z</time>
      </trkpt>
    </trkseg>
  </trk>
</gpx>